sat.trackr.live / text

‹ back to catalog

STARLINK-33567

NORAD 62773 · 2025-015R

PAYLOAD ACTIVE UNKNOWN

§ Identity

Operator
Country
US
Launch date
2025-01-21
Launch site
AFWTR
Launch vehicle
Mass (kg)
RCS (m²)

Purposes: comms

External: N2YO · Heavens-Above · Gunter

§ Orbital elements

Epoch: 2026-05-25T04:00:03.998880Z

Period
93.85 min
Inclination
53.1603°
Eccentricity
0.0000888
Mean motion
15.34393271 rev/d
Perigee alt
462.1 km
Apogee alt
463.3 km
Semi-major
6,840.9 km
B*
-5.3357e-4
RAAN
326.9516°
Arg perigee
89.6889°
Mean anomaly
282.9516°
Rev number
585

§ Raw data

STARLINK-335671 62773U 25015R   26145.16671295 -.00018356  00000+0 -53357-3 0  99932 62773  53.1603 326.9516 0000888  89.6889 282.9516 15.34393271  5858

JSON: /api/v1/satellites/62773 · /tle

For live sub-satellite position, see the globe view (requires WebGL).

§ Visibility from observer

Set your observer location to see the next 7 days of passes ≥ 10°. The values pass through the URL so the page stays shareable.

No JS? Fill the form by hand. The geolocation button needs JavaScript.